CW0677 Weather Reports


time (UTC)temp
F
wind
direction
speed
knots
gust
knots
rain 1hr
in
rain 24hr
in
rain mn
in
humidity
%
barometer
mb
20260506181607 67 106 0.9 7.0 0.00 0.00 0.00 72 1020.5
20260506180113 68 180 2.6 6.1 0.00 0.00 0.00 71 1020.5
20260506174553 67 167 1.7 4.3 0.00 0.00 0.00 71 1020.5
20260506173112 65 209 0.9 3.5 0.00 0.00 0.00 74 1020.6
20260506171601 65 5 1.7 3.5 0.00 0.00 0.00 74 1020.6
20260506170056 63 0 0.9 3.5 0.00 0.00 0.00 76 1020.8
20260506164558 63 9 1.7 5.2 0.00 0.00 0.00 76 1020.8
20260506163057 61 25 0.9 4.3 0.00 0.00 0.00 79 1020.8
20260506161604 61 22 1.7 4.3 0.00 0.00 0.00 79 1020.9
20260506160057 60 238 0.0 2.6 0.00 0.00 0.00 80 1020.9
20260506154557 60 232 0.9 2.6 0.00 0.00 0.00 80 1020.9
20260506153058 59 0 0.0 1.7 0.00 0.00 0.00 82 1020.7
20260506151607 58 0 0.0 0.9 0.00 0.00 0.00 84 1020.8
20260506150054 57 108 0.9 2.6 0.00 0.00 0.00 85 1020.8
20260506144557 57 0 0.0 1.7 0.00 0.00 0.00 87 1020.7
20260506143105 56 92 0.9 1.7 0.00 0.00 0.00 88 1020.6
20260506141558 56 0 0.0 0.0 0.00 0.00 0.00 88 1020.5
20260506140104 55 0 0.0 1.7 0.00 0.00 0.00 88 1020.4
20260506134553 55 0 0.0 0.0 0.00 0.00 0.00 89 1020.3
20260506133058 55 0 0.0 0.9 0.00 0.00 0.00 89 1020.3
20260506131600 55 0 0.0 0.0 0.00 0.00 0.00 89 1020.2
20260506130118 55 0 0.0 0.0 0.00 0.00 0.00 89 1020.1
20260506124553 55 250 0.9 1.7 0.00 0.00 0.00 88 1020.0
20260506123054 55 0 0.0 1.7 0.00 0.00 0.00 88 1019.9
20260506121553 55 0 0.0 1.7 0.00 0.00 0.00 88 1019.9
20260506120052 55 0 0.0 1.7 0.00 0.00 0.00 88 1019.8
20260506114555 55 233 0.0 2.6 0.00 0.00 0.00 88 1019.6
20260506113104 55 0 0.0 2.6 0.00 0.00 0.00 88 1019.6
20260506111555 55 236 0.9 2.6 0.00 0.00 0.00 88 1019.6
20260506104614 55 230 0.0 3.5 0.00 0.00 0.00 88 1019.4
20260506103056 55 186 0.9 5.2 0.00 0.00 0.00 88 1019.2
20260506101603 55 167 0.0 3.5 0.00 0.00 0.00 87 1019.1
20260506100057 55 207 0.9 3.5 0.00 0.00 0.00 87 1019.1
20260506094559 55 227 0.0 2.6 0.00 0.02 0.00 87 1019.0
20260506093105 55 0 0.9 4.3 0.00 0.02 0.00 87 1019.0
20260506091558 55 238 0.9 4.3 0.00 0.02 0.00 87 1019.1
20260506090103 55 161 0.0 2.6 0.00 0.02 0.00 87 1019.2
20260506084556 55 0 0.9 2.6 0.00 0.07 0.00 87 1019.2
20260506083054 55 147 0.0 1.7 0.00 0.07 0.00 87 1019.3
20260506081552 55 194 0.0 3.5 0.00 0.07 0.00 87 1019.2
20260506073102 55 0 0.9 3.5 0.00 0.07 0.00 87 1018.7
20260506071609 56 0 0.9 4.3 0.00 0.07 0.00 87 1018.5
20260506070103 56 214 0.9 3.5 0.00 0.07 0.00 87 1018.4
20260506044601 56 140 1.7 6.1 0.00 0.20 0.07 86 1017.7
20260506043054 56 204 0.9 7.0 0.00 0.20 0.07 85 1017.4
20260506041605 57 181 0.9 5.2 0.00 0.20 0.07 85 1017.2
20260506040055 57 213 1.7 5.2 0.00 0.20 0.07 84 1017.1
20260506034556 57 248 1.7 11.3 0.00 0.21 0.07 83 1016.9
20260506033110 58 217 3.5 9.6 0.00 0.21 0.07 81 1016.5
20260506031558 59 229 1.7 8.7 0.00 0.21 0.07 79 1016.1
20260506030053 59 217 2.6 7.0 0.00 0.21 0.07 78 1016.0
20260506024555 60 163 1.7 6.1 0.00 0.28 0.07 76 1015.9
20260506023100 60 215 0.9 6.1 0.00 0.28 0.07 75 1015.9
20260506021557 61 209 1.7 6.1 0.00 0.28 0.07 74 1015.7
20260506020051 62 232 2.6 6.1 0.00 0.28 0.07 74 1015.5
20260506014557 62 258 2.6 7.0 0.00 0.35 0.07 72 1015.4
20260506013053 63 240 4.3 7.8 0.00 0.35 0.07 70 1015.4
20260506011552 64 223 2.6 7.8 0.00 0.35 0.07 70 1015.2
20260506010054 64 248 4.3 8.7 0.00 0.35 0.07 71 1015.2
20260506004558 63 265 3.5 8.7 0.00 0.39 0.07 71 1015.3
20260506003053 65 239 3.5 8.7 0.00 0.39 0.07 70 1015.2
20260506001614 65 240 3.5 10.4 0.00 0.39 0.07 69 1015.0
20260505234556 64 289 2.6 8.7 0.00 0.43 0.07 71 1015.0
20260505233057 64 268 2.6 10.4 0.00 0.43 0.07 72 1014.9
20260505231557 64 242 2.6 7.8 0.00 0.43 0.07 72 1015.0
20260505230113 65 217 3.5 8.7 0.00 0.43 0.07 72 1014.9
20260505224555 65 215 2.6 8.7 0.00 0.50 0.07 72 1014.9
20260505223059 65 234 3.5 7.8 0.00 0.50 0.07 71 1015.0
20260505221558 66 240 2.6 6.1 0.00 0.50 0.07 71 1015.1
20260505220100 66 261 0.0 6.1 0.00 0.50 0.07 70 1015.1
20260505214608 65 268 1.7 7.0 0.00 0.50 0.07 72 1015.3
20260505213102 64 299 2.6 7.0 0.00 0.50 0.07 71 1015.4
20260505211631 64 300 2.6 7.0 0.00 0.50 0.07 72 1015.5
20260505210109 64 195 1.7 6.1 0.00 0.50 0.07 73 1015.5
20260505204603 64 279 2.6 8.7 0.00 0.50 0.07 74 1015.5
20260505203056 63 246 0.0 7.0 0.00 0.50 0.07 73 1015.5
20260505201608 63 273 0.9 5.2 0.00 0.50 0.07 74 1015.5
20260505194558 63 300 3.5 7.8 0.00 0.50 0.07 72 1015.4
20260505193057 65 313 1.7 5.2 0.00 0.50 0.07 69 1015.5
20260505191605 64 269 0.9 6.1 0.00 0.50 0.07 72 1015.7
20260505190118 62 262 2.6 7.8 0.00 0.50 0.07 73 1015.7
20260505184607 63 344 1.7 5.2 0.00 0.50 0.07 73 1015.7
20260505183057 63 0 2.6 5.2 0.00 0.50 0.07 72 1015.8